Location: Kalberh�ni
(46.4610°N, 7.2453°E)
Time: 17:25:13
(UTC+00:00)

Meteor 2-1 Rocket - Pass Details

Date: 27 October 2021
Orbit: 830 x 906 km, 81.3° (Epoch: 28 November)

Event Time Altitude Azimuth Distance (km) Brightness Sun altitude
Rises 19:14:55 0° 197° (SSW) 3,415 7.4 -30.0°
Reaches altitude 10° 19:17:22 10° 201° (SSW) 2,472 6.7 -30.4°
Enters shadow 19:20:46 37° 214° (SW) 1,282 5.2 -30.9°
Exits shadow 19:26:49 20° 2° (N) 1,852 6.0 -31.9°
Drops below altitude 10° 19:28:27 10° 6° (N) 2,455 6.7 -32.2°
Sets 19:30:53 0° 9° (N) 3,389 7.4 -32.6°
